(285351) = 1999 RJ133 = 2006 BE248

Discovered at Kitt Peak on 1999-09-13 by Spacewatch.

Orbit

Orbit type: Main Belt

Note: WebGL enabled browser required.

epoch2024-03-31.0
epoch JD2460400.5
perihelion date2020-06-08.56524
perihelion JD2459009.06524
argument of perihelion (°)278.42629
ascending node (°)343.52804
inclination (°)4.67737
eccentricity0.0533751
perihelion distance (AU)2.5203534
Tisserand w.r.t. Jupiter3.4
ΔV w.r.t. Earth (km/sec)10.0
semimajor axis (AU)2.6624627
mean anomaly (°)315.67587
mean daily motion (°/day)0.22687080
aphelion distance (AU)2.805
period (years)4.34
P-vector [x]-0.13902838
P-vector [y]-0.87346609
P-vector [z]-0.46661344
Q-vector [x]0.99001843
Q-vector [y]-0.13359561
Q-vector [z]-0.04489674
absolute magnitude17.07
phase slope0.15
uncertainty0
referenceMPEC 2024-F14
observations used177
oppositions14
arc length (days)8960
first opposition used1999
last opposition used2024
residual rms (arc-secs)0.75
perturbers coarse indicatorM-v
perturbers precise indicator003Ek
first observation date used1999-09-05.0
last observation date used2024-03-17.0
computer nameMPCLINUX
JD of orbit computation2456670.633535
perihelion JD uncertainty (days)6.7091E-04
argument of perihelion uncertainty (°)1.5665E-04
ascending node uncertainty (°)7.4122E-05
inclination uncertainty (°)7.3169E-06
eccentricity uncertainty 6.6270E-08
perihelion distance uncertainty (AU)1.7789E-07
Minimum Orbit Intersection Distances (in AU)
for orbit epoch: 2460400.5, reference: E2024-F14
Mercury2.05392
Venus1.79643
Earth1.51005
Mars0.97808
Jupiter2.23224
Saturn6.2578
Uranus15.7506
Neptune27.0732

Observations

182 total observations over interval: 1999 09 05.34331 – 2024 03 17.596255
These data are available for download (format description).

Date (UT) J2000 RA J2000 Dec Magn Location Ref
1999 09 05.34331 23 26 26.29 -03 05 52.3 21.4 V 691 – Steward Observatory, Kitt Peak-Spacewatch MPS 27518
1999 09 05.36462 23 26 25.12 -03 05 56.6 21.2 V 691 – Steward Observatory, Kitt Peak-Spacewatch MPS 27518
1999 09 05.38575 23 26 23.98 -03 06 01.2 21.2 V 691 – Steward Observatory, Kitt Peak-Spacewatch MPS 27518
1999 09 13.29380 23 19 24.71 -03 35 09.3 20.7 V 691 – Steward Observatory, Kitt Peak-Spacewatch MPS 6333
1999 09 13.32117 23 19 23.21 -03 35 15.2 20.8 V 691 – Steward Observatory, Kitt Peak-Spacewatch MPS 6333
1999 09 13.34263 23 19 22.03 -03 35 19.7 21.2 V 691 – Steward Observatory, Kitt Peak-Spacewatch MPS 6333
1999 09 18.19990 23 15 06.02 -03 53 16.0 19.9 V 691 – Steward Observatory, Kitt Peak-Spacewatch MPS 6333
1999 09 18.22158 23 15 04.85 -03 53 20.9 20.1 V 691 – Steward Observatory, Kitt Peak-Spacewatch MPS 6333
1999 09 18.24321 23 15 03.66 -03 53 25.2 20.0 V 691 – Steward Observatory, Kitt Peak-Spacewatch MPS 6333
2004 11 11.13949 03 33 19.96 +26 10 42.5 21.1 V 691 – Steward Observatory, Kitt Peak-Spacewatch MPS 164916
2004 11 11.16693 03 33 18.26 +26 10 39.6 21.3 V 691 – Steward Observatory, Kitt Peak-Spacewatch MPS 164916
2004 11 11.19606 03 33 16.47 +26 10 35.0 21.1 V 691 – Steward Observatory, Kitt Peak-Spacewatch MPS 164916
2004 11 20.19721 03 24 09.62 +25 44 42.6 21.3 V 691 – Steward Observatory, Kitt Peak-Spacewatch MPS 164916
2004 11 20.22441 03 24 08.01 +25 44 37.5 21.0 V 691 – Steward Observatory, Kitt Peak-Spacewatch MPS 164916
2004 11 20.25119 03 24 06.33 +25 44 32.3 20.8 V 691 – Steward Observatory, Kitt Peak-Spacewatch MPS 164916
2006 01 31.33636 10 32 20.58 +11 24 57.1 21.3 V 691 – Steward Observatory, Kitt Peak-Spacewatch MPS 163315
2006 01 31.35375 10 32 19.79 +11 25 00.0 21.2 V 691 – Steward Observatory, Kitt Peak-Spacewatch MPS 163315
2006 01 31.37114 10 32 19.04 +11 25 02.9 20.9 V 691 – Steward Observatory, Kitt Peak-Spacewatch MPS 163315
2006 02 04.34217 10 29 20.31 +11 37 20.9 20.6 V 691 – Steward Observatory, Kitt Peak-Spacewatch MPS 163315
2006 02 04.35956 10 29 19.43 +11 37 24.0 20.9 V 691 – Steward Observatory, Kitt Peak-Spacewatch MPS 163315
2006 02 04.37694 10 29 18.58 +11 37 27.1 20.9 V 691 – Steward Observatory, Kitt Peak-Spacewatch MPS 163315
2006 02 25.25347 10 10 32.66 +12 50 16.5 20.6 V G96 – Mt. Lemmon Survey MPS 164916
2006 02 25.25935 10 10 32.30 +12 50 17.9 21.1 V G96 – Mt. Lemmon Survey MPS 164916
2006 02 25.26510 10 10 31.98 +12 50 18.7 20.8 V G96 – Mt. Lemmon Survey MPS 164916
2006 02 25.27079 10 10 31.65 +12 50 20.0 20.4 V G96 – Mt. Lemmon Survey MPS 164916
2008 09 25.29468 01 32 20.98 +13 58 27.4 20.6 V 691 – Steward Observatory, Kitt Peak-Spacewatch MPS 257717
2008 09 25.31230 01 32 20.13 +13 58 25.4 20.7 V 691 – Steward Observatory, Kitt Peak-Spacewatch MPS 257717
2008 09 25.32992 01 32 19.29 +13 58 23.2 20.8 V 691 – Steward Observatory, Kitt Peak-Spacewatch MPS 257717
2008 09 29.24466 01 29 14.41 +13 48 54.7   691 – Steward Observatory, Kitt Peak-Spacewatch MPS 257717
2008 09 29.26226 01 29 13.54 +13 48 51.9   691 – Steward Observatory, Kitt Peak-Spacewatch MPS 257717
2008 09 29.27986 01 29 12.62 +13 48 49.7   691 – Steward Observatory, Kitt Peak-Spacewatch MPS 257717
2008 10 07.27015 01 22 19.10 +13 23 49.0 20.0 V 691 – Steward Observatory, Kitt Peak-Spacewatch MPS 259065
2008 10 07.28779 01 22 18.21 +13 23 46.7 20.4 V 691 – Steward Observatory, Kitt Peak-Spacewatch MPS 259065
2008 10 07.30541 01 22 17.12 +13 23 42.6 20.4 V 691 – Steward Observatory, Kitt Peak-Spacewatch MPS 259065
2009 12 20.43005 08 27 21.12 +24 39 12.6   691 – Steward Observatory, Kitt Peak-Spacewatch MPS 308561
2009 12 20.44781 08 27 20.47 +24 39 14.9   691 – Steward Observatory, Kitt Peak-Spacewatch MPS 308561
2009 12 20.46556 08 27 19.85 +24 39 17.4   691 – Steward Observatory, Kitt Peak-Spacewatch MPS 308561
2010 01 14.17780 08 06 31.16 +25 40 12.8   691 – Steward Observatory, Kitt Peak-Spacewatch MPS 310110
2010 01 14.19550 08 06 30.09 +25 40 15.1   691 – Steward Observatory, Kitt Peak-Spacewatch MPS 310110
2010 01 14.21319 08 06 28.88 +25 40 18.8   691 – Steward Observatory, Kitt Peak-Spacewatch MPS 310110
2012 08 10.53728 23 30 09.112 -03 49 12.74 20.7 r F51 – Pan-STARRS 1, Haleakala MPS 429990
2012 08 10.54776 23 30 08.751 -03 49 13.83 20.6 r F51 – Pan-STARRS 1, Haleakala MPS 429990
2012 09 17.23984 23 00 17.24 -05 45 53.7 20.1 V G96 – Mt. Lemmon Survey MPS 433244
2012 09 17.24914 23 00 16.77 -05 45 55.0 20.5 V G96 – Mt. Lemmon Survey MPS 433244
2012 09 17.25844 23 00 16.27 -05 45 57.1 20.5 V G96 – Mt. Lemmon Survey MPS 433244
2012 09 17.26773 23 00 15.76 -05 45 59.1 20.6 V G96 – Mt. Lemmon Survey MPS 433244
2012 09 23.21464 22 55 27.08 -06 04 52.6 21.0 V G96 – Mt. Lemmon Survey MPS 434043
2012 09 23.21972 22 55 26.86 -06 04 53.3 20.7 V G96 – Mt. Lemmon Survey MPS 434043
2012 09 23.22480 22 55 26.61 -06 04 54.4 21.4 V G96 – Mt. Lemmon Survey MPS 434043
2012 09 23.22990 22 55 26.36 -06 04 55.4 20.7 V G96 – Mt. Lemmon Survey MPS 434043
2013 11 27.58058 05 57 22.326 +30 21 41.71 21.0 r F51 – Pan-STARRS 1, Haleakala MPS 489807
2013 11 27.59017 05 57 21.802 +30 21 42.03 21.0 r F51 – Pan-STARRS 1, Haleakala MPS 489807
2013 11 27.60027 05 57 21.257 +30 21 42.53 20.7 i F51 – Pan-STARRS 1, Haleakala MPS 489807
2013 11 27.61065 05 57 20.703 +30 21 43.28 20.8 i F51 – Pan-STARRS 1, Haleakala MPS 489807
2013 12 25.29659 05 28 51.436 +30 13 08.58 21.0 w F51 – Pan-STARRS 1, Haleakala MPS 493287
2013 12 25.30977 05 28 50.581 +30 13 07.33 20.9 w F51 – Pan-STARRS 1, Haleakala MPS 493287
2013 12 25.32300 05 28 49.744 +30 13 06.02 21.0 w F51 – Pan-STARRS 1, Haleakala MPS 493287
2015 02 16.50309 12 37 58.673 -05 39 48.99 21.1 w F51 – Pan-STARRS 1, Haleakala MPS 582912
2015 02 16.51579 12 37 58.429 -05 39 49.26 21.4 w F51 – Pan-STARRS 1, Haleakala MPS 582912
2015 02 16.52848 12 37 58.183 -05 39 49.53 21.3 w F51 – Pan-STARRS 1, Haleakala MPS 582912
2015 02 27.54302 12 33 10.274 -05 34 02.72 21.0 w F51 – Pan-STARRS 1, Haleakala MPS 585438
2015 02 27.55557 12 33 09.827 -05 34 01.91 21.0 w F51 – Pan-STARRS 1, Haleakala MPS 585438
2015 02 27.56810 12 33 09.380 -05 34 00.73 20.9 w F51 – Pan-STARRS 1, Haleakala MPS 585438
2015 02 27.58062 12 33 08.933 -05 33 59.74 21.0 w F51 – Pan-STARRS 1, Haleakala MPS 585438
2015 03 21.33449 12 16 35.09 -04 35 43.4 20.4 V G96 – Mt. Lemmon Survey MPS 594901
2015 03 21.33958 12 16 34.81 -04 35 42.4 20.7 V G96 – Mt. Lemmon Survey MPS 594901
2015 03 21.34467 12 16 34.51 -04 35 41.2 20.5 V G96 – Mt. Lemmon Survey MPS 594901
2015 03 21.34975 12 16 34.26 -04 35 40.1 20.4 V G96 – Mt. Lemmon Survey MPS 594901
2015 03 30.37656 12 08 28.025 -04 00 21.44 20.4 i F51 – Pan-STARRS 1, Haleakala MPS 597478
2015 03 30.39201 12 08 27.193 -04 00 17.78 20.2 i F51 – Pan-STARRS 1, Haleakala MPS 597478
2015 03 30.40391 12 08 26.536 -04 00 15.01 20.0 i F51 – Pan-STARRS 1, Haleakala MPS 597478
2015 03 30.41579 12 08 25.875 -04 00 12.12 20.4 i F51 – Pan-STARRS 1, Haleakala MPS 597478
2015 04 14.14488 11 56 24.72 -03 03 50.1 21.0 V 691 – Steward Observatory, Kitt Peak-Spacewatch MPS 600418
2015 04 14.17650 11 56 23.34 -03 03 43.3 20.7 V 691 – Steward Observatory, Kitt Peak-Spacewatch MPS 600418
2015 04 14.20810 11 56 21.94 -03 03 36.9 20.8 V 691 – Steward Observatory, Kitt Peak-Spacewatch MPS 600418
2015 04 17.14817 11 54 21.73 -02 53 53.0 20.9 V 691 – Steward Observatory, Kitt Peak-Spacewatch MPS 600418
2015 04 17.17507 11 54 20.62 -02 53 47.9 20.8 V 691 – Steward Observatory, Kitt Peak-Spacewatch MPS 600418
2015 04 17.20171 11 54 19.56 -02 53 42.4 20.8 V 691 – Steward Observatory, Kitt Peak-Spacewatch MPS 600418
2015 04 19.14154 11 53 06.06 -02 47 43.4 20.7 V 691 – Steward Observatory, Kitt Peak-Spacewatch MPS 602894
2015 04 19.15568 11 53 05.55 -02 47 40.8 20.7 V 691 – Steward Observatory, Kitt Peak-Spacewatch MPS 602894
2015 04 19.16746 11 53 05.11 -02 47 39.3 20.9 V 691 – Steward Observatory, Kitt Peak-Spacewatch MPS 602894
2015 04 19.18160 11 53 04.59 -02 47 37.3 20.8 V 691 – Steward Observatory, Kitt Peak-Spacewatch MPS 602894
2015 04 19.19338 11 53 04.11 -02 47 34.6 20.8 V 691 – Steward Observatory, Kitt Peak-Spacewatch MPS 602894
